Location: *
(58.7167°N, 26.1833°E)
Time: 09:16:53
(UTC+00:00)

Cosmos 2360 Rocket - Pass Details

Date: 25 August 2019
Orbit: 834 x 845 km, 71.0° (Epoch: 24 September)

Event Time Altitude Azimuth Distance (km) Brightness Sun altitude
Rises 21:34:19 0° 321° (NW) 3,399 6.4 -20.1°
Reaches altitude 10° 21:36:56 10° 313° (NW) 2,462 5.4 -20.2°
Maximum altitude 21:42:00 36° 249° (WSW) 1,315 3.1 -20.3°
Enters shadow 21:43:42 29° 215° (SW) 1,488 3.1 -20.3°
